Torna al catalogo

STARLINK-5794

AttivoComunicazioniVLEO
NORAD 56006·PAYLOAD·🇺🇸 United States

Lanciato Mar 24, 2023 da Cape Canaveral Space Force Station

Loading…

Prossimi Passaggi (prossime 24 ore)

TLE

AggiornatoSource: CelesTrak SupGP

Epoca: Sep 14, 2026, 21:24 UTC

1 56006C 23042W   26257.89215278  .00034999  00000+0  12679-2 0  2579
2 56006  43.0012  78.7275 0001364 273.1285 170.0582 15.27554924    15

Traccia STARLINK-5794 in tempo reale con AllMySat

Download on the App Store